This is the latest recevied weather packets stored in our database for station/object K0FJ-1. If no packets are shown the sender has not sent any weather packets the latest 10 day(s).
| Time | Temp. | Humidity | Pressure | Rain* | Wind** | Luminosity | Snow |
|---|---|---|---|---|---|---|---|
| 1788413103 | 26.67° C | 45% | 1012.3 hPa | 0 mm | - | - | - |
| 1788412803 | 26.67° C | 45% | 1012.3 hPa | 0 mm | - | - | - |
| 1788412503 | 26.67° C | 43% | 1012.3 hPa | 0 mm | - | - | - |
| 1788412203 | 26.67° C | 43% | 1012.3 hPa | 0 mm | - | - | - |
| 1788411903 | 26.67° C | 43% | 1012.3 hPa | 0 mm | - | - | - |
| 1788411604 | 26.67° C | 42% | 1012.3 hPa | 0 mm | - | - | - |
| 1788411303 | 26.11° C | 43% | 1012.3 hPa | 0 mm | - | - | - |
| 1788411003 | 25.56° C | 44% | 1012.2 hPa | 0 mm | - | - | - |
| 1788410703 | 25.56° C | 44% | 1012.4 hPa | 0 mm | - | - | - |
| 1788410403 | 25.56° C | 45% | 1012.4 hPa | 0 mm | - | - | - |
| 1788410103 | 25.56° C | 45% | 1012.5 hPa | 0 mm | - | - | - |
| 1788409803 | 25° C | 46% | 1012.3 hPa | 0 mm | - | - | - |
| 1788409503 | 25.56° C | 46% | 1012.3 hPa | 0 mm | - | - | - |
| 1788409203 | 25.56° C | 46% | 1012.3 hPa | 0 mm | - | - | - |
| 1788408903 | 25.56° C | 46% | 1012.3 hPa | 0 mm | - | - | - |
| 1788408603 | 25.56° C | 45% | 1012.3 hPa | 0 mm | - | - | - |
| 1788408303 | 25.56° C | 45% | 1012.2 hPa | 0 mm | - | - | - |
| 1788408003 | 25.56° C | 46% | 1012.4 hPa | 0 mm | - | - | - |
| 1788407703 | 25.56° C | 46% | 1012.3 hPa | 0 mm | - | - | - |
| 1788407403 | 25.56° C | 44% | 1012.3 hPa | 0 mm | - | - | - |
| 1788407103 | 25.56° C | 44% | 1012.2 hPa | 0 mm | - | - | - |
| 1788406803 | 25.56° C | 43% | 1012.3 hPa | 0 mm | - | - | - |
| 1788406503 | 26.11° C | 42% | 1012.3 hPa | 0 mm | - | - | - |
| 1788406203 | 26.11° C | 43% | 1012.2 hPa | 0 mm | - | - | - |
| 1788405903 | 26.67° C | 41% | 1012.3 hPa | 0 mm | - | - | - |
* Rain latest hour (hover to see other rain measurements)
** Current wind speed in m/s (hover to see current wind gust speed)